This demonstration page uses our WeatherBlox Daily Observations layout. Learn more.

Left ArrowRight Arrow

39.51506, -84.39828

Hourly Observations for December 23, 2018

Temp ( °F °C ) Dew Point ( °F °C ) Humidity (%) Winds ( mph kmh ) Pressure ( in mb ) Visibility ( mi km ) Precip ( " mm )
12:15 am 00:15 Clear with Mist and Fog 30 -0.9 29 -1.6 95 95 Calm 30.12 1020 7 11 0.00 0.00
12:35 am 00:35 Clear 31 -0.4 29 -1.5 92 92 Calm 30.15 1021 7 11 0.00 0.00
12:55 am 00:55 Clear 32 -0.1 29 -1.4 91 91 Calm 30.12 1020 10 16 0.00 0.00
1:15 am 01:15 Clear 32 -0.1 30 -1.2 92 92 Calm 30.15 1021 7 11 0.00 0.00
1:35 am 01:35 Clear with Mist and Fog 31 -0.6 29 -1.4 94 94 Calm 30.12 1020 7 11 0.00 0.00
1:55 am 01:55 Clear 31 -0.5 30 -1.3 94 94 SW 3 6 30.15 1021 7 11 0.00 0.00
2:15 am 02:15 Clear 31 -0.5 29 -1.4 94 94 SSW 3 6 30.12 1020 7 11 0.00 0.00
2:35 am 02:35 Clear with Mist and Fog 30 -1.1 29 -1.7 96 96 SW 3 6 30.15 1021 7 11 0.00 0.00
2:55 am 02:55 Clear with Mist and Fog 30 -1.2 29 -1.7 96 96 SSW 3 6 30.12 1020 7 11 0.00 0.00
3:15 am 03:15 Clear with Mist and Fog 30 -1.1 29 -1.6 96 96 SSW 3 6 30.12 1020 7 11 0.00 0.00
3:35 am 03:35 Clear with Mist and Fog 30 -1 29 -1.6 96 96 Calm 30.12 1020 7 11 0.00 0.00
3:55 am 03:55 Clear with Mist and Fog 29 -1.5 29 -1.9 97 97 Calm 30.12 1020 5 8 0.00 0.00
4:15 am 04:15 Clear with Mist and Fog 29 -1.8 28 -2.1 98 98 Calm 30.12 1020 5 8 0.00 0.00
4:35 am 04:35 Clear with Mist and Fog 29 -1.9 28 -2.2 98 98 Calm 30.09 1019 4 6 0.00 0.00
4:55 am 04:55 Mostly Cloudy with Mist and Fog 27 -3 26 -3.3 98 98 Calm 30.09 1019 2 2 0.00 0.00
5:15 am 05:15 Clear with Mist and Fog 27 -2.7 27 -3 98 98 Calm 30.09 1019 2 3 0.00 0.00
5:35 am 05:35 Mostly Cloudy with Mist and Fog 27 -2.6 27 -2.8 99 99 Calm 30.09 1019 2 2 0.00 0.00
5:55 am 05:55 Clear with Mist and Fog 27 -3 26 -3.3 98 98 Calm 30.12 1020 3 4 0.00 0.00
6:15 am 06:15 Mostly Cloudy with Mist and Fog 26 -3.5 25 -3.9 97 97 Calm 30.12 1020 1 1 0.00 0.00
6:35 am 06:35 Mostly Cloudy with Freezing Fog 26 -3.3 26 -3.6 98 98 Calm 30.12 1020 0 0 0.00 0.00
6:55 am 06:55 Mostly Cloudy with Freezing Fog 26 -3.1 26 -3.4 98 98 Calm 30.12 1020 0 0 0.00 0.00
7:15 am 07:15 Mostly Cloudy with Freezing Fog 26 -3.3 25 -3.7 97 97 Calm 30.12 1020 1 1 0.00 0.00
7:35 am 07:35 Mostly Cloudy with Mist and Fog 25 -3.7 25 -4.1 97 97 Calm 30.12 1020 2 2 0.00 0.00
7:55 am 07:55 Mostly Cloudy with Freezing Fog 24 -4.6 23 -5.2 96 96 Calm 30.12 1020 0 0 0.00 0.00
8:15 am 08:15 Sunny with Mist and Fog 26 -3.2 26 -3.6 97 97 Calm 30.15 1021 3 4 0.00 0.00
8:35 am 08:35 Sunny with Mist and Fog 26 -3.2 25 -3.7 96 96 Calm 30.15 1021 5 8 0.00 0.00
8:55 am 08:55 Sunny with Mist and Fog 28 -2.3 27 -2.6 98 98 Calm 30.15 1021 4 6 0.00 0.00
9:15 am 09:15 Sunny with Mist and Fog 29 -1.7 29 -1.9 99 99 Calm 30.15 1021 4 6 0.00 0.00
9:35 am 09:35 Partly Cloudy with Mist and Fog 30 -1.1 30 -1.3 99 99 Calm 30.15 1021 4 6 0.00 0.00
9:55 am 09:55 Mostly Cloudy with Mist and Fog 31 -0.7 30 -0.9 99 99 Calm 30.15 1021 4 6 0.00 0.00
10:15 am 10:15 Partly Cloudy with Mist and Fog 31 -0.3 31 -0.5 99 99 Calm 30.15 1021 5 8 0.00 0.00
10:35 am 10:35 Partly Cloudy 33 0.6 32 0.1 97 97 Calm 30.15 1021 7 11 0.00 0.00
10:55 am 10:55 Mostly Cloudy 34 0.9 32 -0.2 92 92 Calm 30.15 1021 7 11 0.00 0.00
11:15 am 11:15 Cloudy 34 1.2 32 0 92 92 Calm 30.15 1021 7 11 0.00 0.00
11:35 am 11:35 Cloudy with Mist and Fog 36 2 33 0.6 91 91 NNW 6 9 30.15 1021 7 11 0.00 0.00
11:55 am 11:55 Cloudy with Mist and Fog 36 2.4 33 0.5 87 87 N 7 11 30.12 1020 7 11 0.00 0.00
12:15 pm 12:15 Cloudy with Mist and Fog 37 2.5 33 0.4 86 86 N 8 13 30.09 1019 5 8 0.00 0.00
12:35 pm 12:35 Cloudy with Haze 37 2.6 33 0.3 85 85 NNW 5 7 30.09 1019 7 11 0.00 0.00
12:55 pm 12:55 Cloudy with Mist and Fog 37 2.5 32 0.1 84 84 NNW 3 6 30.09 1019 7 11 0.00 0.00
1:15 pm 13:15 Cloudy 37 2.6 32 0.1 84 84 N 3 6 30.09 1019 7 11 0.00 0.00
1:35 pm 13:35 Cloudy with Mist and Fog 36 2.3 32 -0.1 84 84 NNW 7 11 30.09 1019 7 11 0.00 0.00
1:55 pm 13:55 Cloudy with Haze 37 2.5 32 0.1 84 84 NW 6 9 30.09 1019 7 11 0.00 0.00
2:15 pm 14:15 Cloudy with Mist and Fog 36 2.3 32 0 85 85 N 7 11 30.09 1019 5 8 0.00 0.00
2:35 pm 14:35 Cloudy with Mist and Fog 36 2.2 32 0 86 86 NW 8 13 30.09 1019 5 8 0.00 0.00
2:55 pm 14:55 Cloudy with Mist and Fog 36 2.2 32 -0.2 84 84 NNW 9 15 30.09 1019 7 11 0.00 0.00
3:15 pm 15:15 Cloudy 36 2.1 31 -0.3 84 84 NNW 7 11 30.09 1019 7 11 0.00 0.00
3:35 pm 15:35 Cloudy with Mist and Fog 36 2.1 32 -0.2 85 85 NW 8 13 30.09 1019 7 11 0.00 0.00
3:55 pm 15:55 Cloudy 36 2.1 32 -0.2 85 85 NW 7 11 30.12 1020 7 11 0.00 0.00
4:15 pm 16:15 Cloudy with Mist and Fog 35 1.9 31 -0.5 84 84 NNW 7 11 30.12 1020 7 11 0.00 0.00
4:35 pm 16:35 Cloudy with Haze 35 1.8 30 -0.9 82 82 NW 10 17 30.12 1020 7 11 0.00 0.00
4:55 pm 16:55 Cloudy with Haze 35 1.7 30 -1.1 82 82 WNW 7 11 30.15 1021 7 11 0.00 0.00
5:15 pm 17:15 Cloudy with Haze 35 1.6 30 -1.2 82 82 WNW 6 9 30.15 1021 5 8 0.00 0.00
5:35 pm 17:35 Cloudy with Haze 35 1.5 30 -1.2 82 82 W 3 6 30.15 1021 5 8 0.00 0.00
5:55 pm 17:55 Cloudy 34 1.3 30 -1.3 83 83 WNW 5 7 30.15 1021 7 11 0.00 0.00
6:15 pm 18:15 Cloudy 34 1.1 29 -1.4 84 84 SW 3 6 30.15 1021 7 11 0.00 0.00
6:35 pm 18:35 Cloudy 34 1 30 -1.2 85 85 WSW 5 7 30.18 1022 7 11 0.00 0.00
6:55 pm 18:55 Cloudy 34 1 30 -1.2 85 85 WSW 5 7 30.18 1022 7 11 0.00 0.00
7:15 pm 19:15 Cloudy 34 1 30 -1.1 86 86 WSW 6 9 30.18 1022 7 11 0.00 0.00
7:35 pm 19:35 Cloudy 34 0.9 30 -1.1 87 87 SW 5 7 30.21 1023 7 11 0.00 0.00
7:55 pm 19:55 Cloudy 33 0.8 30 -1.1 87 87 SW 5 7 30.21 1023 7 11 0.00 0.00
8:15 pm 20:15 Cloudy 33 0.8 30 -1.1 87 87 SW 5 7 30.21 1023 7 11 0.00 0.00
8:35 pm 20:35 Cloudy 34 0.9 30 -1 87 87 SW 6 9 30.21 1023 7 11 0.00 0.00
8:55 pm 20:55 Cloudy 33 0.7 30 -1.2 87 87 SSW 3 6 30.21 1023 10 16 0.00 0.00
9:15 pm 21:15 Partly Cloudy 31 -0.4 29 -1.9 90 90 SSW 3 6 30.24 1024 7 11 0.00 0.00
9:35 pm 21:35 Cloudy 33 0.4 30 -1.1 90 90 SSW 5 7 30.24 1024 10 16 0.00 0.00
9:55 pm 21:55 Cloudy 33 0.7 30 -1 89 89 SSW 7 11 30.24 1024 10 16 0.00 0.00
10:15 pm 22:15 Mostly Cloudy 33 0.5 30 -1.3 88 88 SSW 6 9 30.24 1024 10 16 0.00 0.00
10:35 pm 22:35 Clear 31 -0.5 29 -1.9 90 90 SW 5 7 30.24 1024 10 16 0.00 0.00
10:55 pm 22:55 Clear 30 -1.1 28 -2.4 91 91 SW 5 7 30.24 1024 10 16 0.00 0.00
11:15 pm 23:15 Mostly Cloudy 31 -0.6 28 -2.3 88 88 WSW 3 6 30.27 1025 10 16 0.00 0.00
11:35 pm 23:35 Cloudy 32 -0.1 29 -1.7 89 89 SSW 5 7 30.27 1025 10 16 0.00 0.00
11:55 pm 23:55 Partly Cloudy 31 -0.5 28 -2.2 88 88 SSW 6 9 30.24 1024 10 16 0.00 0.00

Powered by AerisWeather